Flag for Austria Weather past 2 weeks in Eisenstadt, Burgenland, Austria

Now
66 °F

Mild.


Feels Like: 66 °F
Forecast: 60 / 77 °F
Wind: 6 mph from Northwest

Location: Eisenstadt

Current Time: Sep 2, 2015 at 11:29:40 AM

Latest Report: Sep 2, 2015 at 10:00 AM


Visibility: N/A

Pressure: 29.96 "Hg

Humidity: 68%

Dew point: 55 °F

Location of EisenstadtLocation

Historic Weather in Eisenstadt — Graph

°F

Eisenstadt temperature yesterday

Maximum temperature yesterday: 91 °F (at 5:00 PM)
Minimum temperature yesterday: 64 °F (at 6:00 AM)
Average temperature yesterday: 76 °F

Past Weeks' High & Low Weather Summary

 TemperatureHumidityPressure
High94 °F (Aug 30, 4:00 PM)95% (Aug 20, 9:00 AM)30.22 "Hg (Aug 20, 9:00 AM)
Low53 °F (Aug 26, 7:00 AM)19% (Aug 31, 3:00 PM)29.68 "Hg (Sep 1, 7:00 PM)
Average70 °F65%30.01 "Hg
* Reported Aug 18 10:00 AM — Sep 2 10:00 AM, Eisenstadt, Weather by CustomWeather, © 2015

Note: Actual official high and low records may vary slightly from our data, if they occured in-between our weather recording intervals... More about our weather records

Advertising

Eisenstadt weather history for previous 24 hours

 ConditionsComfort  
Time TempWeatherWind HumidityBarometerVisibility
10:00 AM
Wed, Sep 2
66 °FMild.6 mph68%29.96 "HgN/A
9:00 AM66 °FMild.7 mph71%29.94 "HgN/A
8:00 AM70 °FPartly sunny.8 mph66%29.89 "Hg12 mi
7:00 AM69 °FPartly sunny.7 mph68%29.87 "Hg12 mi
5:00 AM71 °FMild.8 mph62%29.83 "HgN/A
4:00 AM73 °FMild.9 mph59%29.82 "HgN/A
3:00 AM74 °FMild.12 mph58%29.81 "HgN/A
2:00 AM76 °FClear.13 mph52%29.78 "Hg9 mi
12:00 AM80 °FWarm.12 mph44%29.73 "HgN/A
11:00 PM
Tue, Sep 1
72 °FClear.2 mph63%29.71 "Hg16 mi
10:00 PM74 °FMild.2 mph59%29.70 "HgN/A
9:00 PM76 °FMild.2 mph58%29.71 "HgN/A
8:00 PM80 °FClear.2 mph53%29.69 "Hg16 mi
7:00 PM87 °FPassing clouds.5 mph41%29.68 "Hg16 mi
6:00 PM89 °FHot.3 mph35%29.69 "HgN/A
5:00 PM91 °FSunny.5 mph34%29.70 "Hg16 mi
4:00 PM90 °FHot.3 mph33%29.72 "HgN/A
3:00 PM90 °FHot.5 mph31%29.74 "HgN/A
2:00 PM89 °FSunny.5 mph34%29.76 "Hg16 mi
1:00 PM86 °FWarm.2 mph45%29.78 "HgN/A
12:00 PM82 °FWarm.2 mph52%29.80 "HgN/A
11:00 AM80 °FSunny.2 mph57%29.81 "Hg16 mi
Weather by CustomWeather, © 2015

See weather overviewHow to use our weather pages